Weather History for Wisconsin Rapids, WI

Change the Weather History Date:

Friday, March 21, 2014

  Actual Average Record
Temperature  
Mean Temperature 33 °F -  
Max Temperature 44 °F 41 °F 80 °F (2012)
Min Temperature 23 °F 21 °F -10 °F (1965)
Degree Days  
Heating Degree Days 32    
Moisture  
Dew Point 25 °F    
Average Humidity 70    
Maximum Humidity 88    
Minimum Humidity 45    
Precipitation  
Precipitation 0.00 in - - ()
Sea Level Pressure  
Sea Level Pressure 29.87 in    
Wind  
Wind Speed 7 mph (SE)    
Max Wind Speed 18 mph    
Max Gust Speed 28 mph    
Visibility 10 miles    
Events Rain    
Averages and records for this station are not official NWS values.
T = Trace of Precipitation, MM = Missing Value Source: NWS Daily Summary

Daily Weather History Graph

Daily Weather History Graph

Search for Another Location

Airport:

Trip Planner

Search our weather history database for the weather conditions in past years. The results will help you decide how hot, cold, wet, or windy it might be!

Date:

Astronomy

Mar. 21, 2014 Rise Set
Actual Time 7:00 AM CDT 7:13 PM CDT
Civil Twilight 6:31 AM CDT 7:42 PM CDT
Nautical Twilight 5:57 AM CDT 8:16 PM CDT
Astronomical Twilight 5:22 AM CDT 8:51 PM CDT
Moon No Moon Rise 9:42 AM CDT (3/21)
Length of Visible Light 13h 10m
Length of Day
12h 12m
Waning Gibbous, 75% of the Moon is Illuminated
Mar 21
Waning Gibbous
Mar 23
Last Quarter
Mar 30
New
Apr 7
First Quarter
Apr 15
Full

Hourly Weather History & Observations

Time (CDT) Temp. Windchill Dew Point Humidity Pressure Visibility Wind Dir Wind Speed Gust Speed Precip Events Conditions
12:54 AM 25.0 °F - 21.0 °F 85% 30.02 in 8.0 mi Calm Calm - N/A   Scattered Clouds
1:54 AM 23.0 °F 17.0 °F 19.9 °F 88% 30.00 in 10.0 mi SE 4.6 mph - N/A   Clear
2:54 AM 24.1 °F 18.2 °F 19.9 °F 84% 30.00 in 10.0 mi SE 4.6 mph - N/A   Clear
3:54 AM 24.1 °F - 19.9 °F 84% 29.99 in 10.0 mi Calm Calm - N/A   Clear
4:54 AM 24.1 °F 17.0 °F 19.0 °F 81% 29.97 in 10.0 mi ESE 5.8 mph - N/A   Clear
5:54 AM 27.0 °F 20.5 °F 19.9 °F 75% 29.95 in 10.0 mi SE 5.8 mph - N/A   Unknown
6:54 AM 27.0 °F 20.5 °F 19.9 °F 75% 29.97 in 10.0 mi SE 5.8 mph - N/A   Clear
7:54 AM 28.9 °F 21.9 °F 21.0 °F 72% 29.97 in 10.0 mi SE 6.9 mph - N/A   Clear
8:54 AM 32.0 °F 24.2 °F 23.0 °F 69% 29.95 in 10.0 mi SSE 9.2 mph - N/A   Partly Cloudy
9:54 AM 37.0 °F 29.3 °F 24.1 °F 59% 29.91 in 10.0 mi SSE 11.5 mph 21.9 mph N/A   Clear
10:54 AM 37.9 °F 28.5 °F 24.1 °F 57% 29.88 in 10.0 mi SSE 17.3 mph 25.3 mph N/A   Partly Cloudy
11:54 AM 39.9 °F 31.8 °F 25.0 °F 55% 29.85 in 10.0 mi SE 15.0 mph 24.2 mph N/A   Scattered Clouds
12:54 PM 43.0 °F 36.0 °F 23.0 °F 45% 29.82 in 10.0 mi SE 13.8 mph - N/A   Mostly Cloudy
1:54 PM 43.0 °F 36.8 °F 24.1 °F 47% 29.78 in 10.0 mi South 11.5 mph 16.1 mph N/A   Overcast
2:54 PM 43.0 °F 38.2 °F 26.1 °F 51% 29.76 in 10.0 mi ESE 8.1 mph - N/A   Overcast
3:54 PM 43.0 °F 39.5 °F 26.1 °F 51% 29.75 in 10.0 mi SE 5.8 mph - N/A   Overcast
4:54 PM 42.1 °F 40.2 °F 26.1 °F 53% 29.75 in 10.0 mi East 3.5 mph - N/A   Overcast
5:54 PM 41.0 °F 38.0 °F 28.0 °F 60% 29.75 in 10.0 mi East 4.6 mph - N/A   Overcast
6:54 PM 39.9 °F 35.8 °F 28.0 °F 63% 29.77 in 10.0 mi NNW 5.8 mph - N/A   Overcast
7:54 PM 39.0 °F 32.3 °F 30.0 °F 70% 29.80 in 10.0 mi West 10.4 mph - 0.00 in Rain Light Rain
8:15 PM 37.9 °F 28.9 °F 33.1 °F 83% 29.77 in 10.0 mi West 16.1 mph 24.2 mph 0.00 in   Overcast
8:42 PM 37.0 °F 27.7 °F 33.1 °F 86% 29.78 in 10.0 mi WNW 16.1 mph 25.3 mph 0.00 in   Overcast
8:54 PM 37.0 °F 28.9 °F 32.0 °F 82% 29.82 in 10.0 mi WNW 12.7 mph 24.2 mph 0.00 in   Overcast
9:54 PM 36.0 °F 26.0 °F 30.0 °F 79% 29.85 in 10.0 mi NW 17.3 mph 27.6 mph N/A   Overcast
10:42 PM 36.0 °F 25.6 °F 28.9 °F 76% 29.85 in 10.0 mi NW 18.4 mph 25.3 mph N/A   Overcast
10:52 PM 35.6 °F 26.2 °F 28.4 °F 75% 29.85 in 10.0 mi NW 15.0 mph 25.3 mph N/A   Overcast
10:54 PM 36.0 °F 26.7 °F 28.9 °F 76% 29.88 in 10.0 mi NW 15.0 mph - N/A   Overcast
11:07 PM 36.0 °F 26.3 °F 28.9 °F 76% 29.86 in 10.0 mi NW 16.1 mph 26.5 mph N/A   Overcast
11:54 PM 35.1 °F 25.5 °F 28.0 °F 76% 29.92 in 10.0 mi NW 15.0 mph 24.2 mph N/A   Overcast